LiveATC.Net - Listen to live air traffic control over the Internet!


ICAO: KFAR  IATA: FAR   Airport: Hector International Airport
City: Fargo   State/Province: North Dakota
Country: United States   Continent: North America
KFAR METAR Weather: KFAR 181853Z 33010KT 10SM FEW013 SCT075 OVC085 19/17 A2988 RMK AO2 RAB21E31 SLP117 P0000 T01940167
KFAR ADS-B Flight Tracking (ADSBExchange)
KFAR Flight Activity (FlightAware)
KFAR Airport Info   (iFlightPlanner)
KFAR VFR Sectional Chart   (iFlightPlanner) 
KFAR IFR Low Altitude Chart   (iFlightPlanner) 
KFAR IFR High Altitude Chart   (iFlightPlanner) 

KFAR Tower
Feed Status: UP   Listeners: 3
Listen in your browser - HTML5 player (in browser, HTML5)
Click here to listen with your own player (launches your MP3 player)
Archive Access: KFAR Tower
FacilityFrequency
Fargo Tower133.800

NOTICE

Unauthorized use prohibited. See LiveATC.net Terms of Service


Airport/ARTCC Code
Frequency Search
(e.g., 124.400, 128.75)
Site-wide search
 


Browse Feeds
Top 50 Feeds
HF Oceanic Feeds
Coverage Map
Bad Weather Areas

LiveATC FAQ
Offer LiveATC feed
Contact LiveATC.net
Press Inquiries

LiveATC on iPhone
LiveATC on Android

LiveATC Mobile
(Mobile browser)

ATC Audio Archives
Interesting Recordings

LiveATC Forums


Home Page
About LiveATC.net


Terms of Use
Privacy Policy

AIRMETs/SIGMETs

FAA Airport Status
NAS Status
Arrival Demand


Server Software By:
Icecast.org
Liquidsoap